Location: Saratoga Springs
(43.0831°N, 73.7850°W)
Time: 08:02:05
(UTC-04:00)

Vanguard 1 Rocket - Pass Details

Date: 22 April 2024
Orbit: 650 x 4220 km, 34.3° (Epoch: 22 May)

Event Time Altitude Azimuth Distance (km) Brightness Sun altitude
Rises 01:27:46 0° 266° (W) 4,717 10.9 -34.0°
Enters shadow 01:28:40 - 263° (W) 4,565 10.8 -34.0°
Reaches altitude 10° 01:31:29 10° 250° (WSW) 4,212 - -33.9°
Maximum altitude 01:39:35 21° 208° (SSW) 4,335 - -33.6°
Drops below altitude 10° 01:51:26 10° 168° (SSE) 6,356 - -33.0°
Sets 01:59:26 0° 156° (SSE) 7,943 - -32.5°
